Wetbulb
38.66 39.12 39.36 39.66 40.17 40.87 40.53 40.84 41.46 42.32 44.02 47.52 49.02 51.15 57.23 66.99 68.56 68.42 68.70 68.78 68.02 67.30 66.41 65.75 65.99 64.80 63.71 62.34 61.12 61.16 60.22 59.71
38.22 39.11 39.06 39.08 39.84 40.09 39.69 39.57 40.49 41.09 41.64 43.12 44.98 47.26 50.58 56.38 64.58 68.51 68.70 68.74 68.24 67.54 66.81 66.02 65.59 64.67 63.47 61.97 60.89 59.78 58.50 59.77
36.47 37.45 37.94 38.01 38.43 39.46 39.28 39.10 40.11 40.79 41.78 42.51 44.39 46.67 49.17 54.21 58.70 62.30 67.20 68.45 67.75 67.39 66.73 65.97 65.49 64.81 63.20 61.67 60.25 59.12 59.06 60.67
35.23 36.37 36.69 37.39 37.33 38.60 39.07 39.26 39.73 40.87 41.39 42.46 43.51 45.11 47.94 50.95 56.47 59.77 58.92 61.12 68.09 67.89 67.18 66.53 65.66 64.89 62.94 61.64 60.26 59.03 57.89 60.40
35.24 36.03 36.18 36.51 37.08 39.08 39.08 39.31 39.88 40.98 40.83 40.72 40.32 41.97 42.58 46.11 50.14 56.45 58.56 57.21 57.12 58.30 67.52 67.09 66.03 65.21 63.11 61.93 60.81 59.77 59.44 58.48
33.87 35.66 36.43 37.08 37.36 38.64 38.84 39.08 39.56 40.57 40.56 40.37 39.52 40.32 42.82 46.00 48.38 53.70 58.20 57.74 58.30 58.42 59.03 66.79 66.25 65.32 63.61 62.26 60.82 59.75 60.10 59.63
34.21 36.04 37.29 36.59 37.19 38.66 38.49 38.19 38.61 40.12 40.42 39.93 39.57 39.72 41.18 43.50 47.99 53.68 57.41 57.06 58.37 60.64 61.15 60.74 66.81 65.44 63.88 62.19 61.65 60.38 60.20 60.80
32.95 33.52 35.59 35.82 35.86 37.87 37.59 37.62 37.57 38.73 39.67 39.60 39.60 40.14 40.75 41.77 45.17 46.74 49.64 55.45 58.42 58.46 60.49 60.96 65.71 65.34 64.65 63.00 61.86 60.96 60.32 60.91
33.83 34.20 35.56 35.71 35.65 36.90 37.17 37.37 36.80 38.12 38.92 39.54 39.67 39.55 39.49 40.96 42.52 44.15 46.24 48.03 51.05 58.20 59.61 59.27 60.73 62.89 64.67 63.75 62.44 61.81 60.94 61.38
34.03 35.39 35.90 36.08 35.54 36.08 36.91 37.42 37.35 37.66 38.71 39.09 38.89 38.87 38.97 39.37 40.78 42.13 43.78 45.39 47.81 51.67 55.09 58.65 58.91 57.14 64.87 63.77 62.48 61.70 61.58 61.38
33.50 34.45 35.91 36.42 36.28 35.74 37.35 37.65 37.15 37.73 38.54 38.86 38.68 38.56 39.19 39.47 40.49 39.89 40.79 42.99 45.18 47.71 49.29 58.41 58.94 59.19 60.18 61.90 62.96 62.25 61.77 61.73
32.74 33.78 34.80 35.37 35.39 36.29 36.70 37.47 37.16 37.15 38.24 38.41 38.36 38.59 38.49 38.90 39.06 39.88 40.07 40.93 42.63 44.01 45.43 47.30 49.26 58.13 59.07 57.79 60.14 62.43 61.74 61.93
32.78 33.07 33.92 34.30 34.88 35.43 35.84 36.60 37.27 37.42 38.36 38.28 37.61 38.20 38.26 38.02 37.62 39.00 40.15 39.70 40.85 42.21 43.38 43.44 43.42 43.97 47.03 58.19 57.34 59.12 61.60 61.71
32.38 32.54 33.08 33.58 34.51 34.96 35.39 36.28 37.07 37.60 37.81 38.01 37.43 37.07 36.62 37.10 37.25 37.95 39.14 39.65 39.88 40.25 40.63 40.41 40.82 42.11 42.11 43.59 51.28 52.95 55.42 59.81
31.62 31.40 32.37 33.44 34.22 34.49 35.20 35.76 36.86 37.03 37.04 37.01 36.43 36.89 36.10 36.55 37.10 37.25 37.28 38.85 39.18 39.41 39.88 39.70 39.33 39.46 40.02 41.88 45.25 49.37 51.31 54.88
31.46 30.98 31.60 32.81 33.14 33.79 34.74 35.31 36.07 36.41 35.48 36.41 36.03 36.90 36.07 36.27 36.11 36.79 36.94 36.63 37.89 38.88 39.28 38.75 38.72 38.47 38.30 38.78 42.59 43.53 47.32 48.76
31.78 32.07 32.28 32.51 32.63 33.15 34.12 34.33 34.84 35.56 34.10 34.83 36.29 35.80 34.91 35.25 35.46 35.37 35.73 35.45 35.27 36.34 36.68 37.87 37.51 37.72 37.20 37.97 39.62 40.60 41.92 41.78
31.22 31.41 31.61 31.76 31.76 32.59 32.56 33.25 34.57 33.34 33.01 34.05 35.85 34.65 33.68 34.00 34.58 34.31 34.54 34.05 34.08 33.49 34.26 34.96 35.64 36.10 36.31 37.19 37.04 38.82 39.26 40.06
31.20 31.18 31.49 31.39 31.40 31.64 32.35 33.01 32.37 32.18 32.24 33.32 35.36 33.40 32.63 33.60 33.33 33.17 33.33 33.60 32.89 32.88 32.50 33.44 33.49 34.65 35.89 35.58 35.91 37.12 37.17 37.99
MSLP
1023.52 1022.91 1022.39 1021.74 1021.32 1020.74 1019.94 1019.16 1018.21 1017.16 1015.60 1014.21 1013.25 1011.99 1010.59 1008.87 1008.10 1008.17 1008.19 1008.73 1008.84 1009.18 1010.25 1010.87 1011.21 1012.29 1013.31 1014.09 1014.69 1015.39 1015.96 1016.91
1023.85 1023.18 1022.69 1021.62 1021.10 1020.35 1019.87 1019.23 1018.41 1017.27 1016.22 1014.82 1013.42 1012.54 1011.35 1009.93 1008.64 1007.48 1007.31 1007.67 1008.12 1008.23 1008.73 1009.72 1010.39 1010.96 1011.73 1012.64 1013.48 1014.55 1015.53 1016.34
1023.54 1022.96 1022.37 1021.59 1020.99 1020.23 1019.50 1018.72 1018.06 1017.48 1016.69 1015.88 1014.94 1013.41 1011.65 1010.54 1009.20 1008.01 1007.01 1006.65 1007.07 1007.73 1008.13 1008.71 1009.41 1010.26 1010.99 1011.95 1012.65 1013.59 1014.62 1015.27
1024.16 1023.00 1022.33 1021.85 1021.27 1020.41 1019.77 1019.14 1018.24 1017.39 1016.77 1015.63 1014.77 1013.35 1011.85 1010.40 1008.89 1007.86 1006.83 1006.70 1005.88 1007.07 1007.71 1008.08 1008.53 1009.35 1009.92 1010.39 1011.13 1011.89 1013.02 1014.27
1024.65 1023.59 1022.65 1022.14 1021.63 1020.98 1020.30 1019.52 1018.56 1017.60 1016.77 1015.93 1015.17 1014.03 1012.37 1010.65 1009.56 1008.38 1006.91 1004.91 1004.26 1006.76 1006.53 1007.16 1007.76 1008.34 1009.11 1009.36 1009.93 1010.55 1011.38 1012.38
1025.07 1024.28 1023.56 1022.64 1021.88 1021.18 1020.50 1019.59 1018.59 1017.78 1017.04 1016.21 1015.18 1014.02 1012.79 1010.76 1009.32 1008.29 1007.35 1006.60 1006.57 1007.66 1006.42 1006.25 1006.33 1007.46 1008.10 1008.47 1009.20 1009.81 1010.24 1010.96
1025.59 1024.88 1024.07 1023.27 1022.49 1021.35 1020.62 1019.85 1018.95 1018.15 1017.20 1016.30 1015.31 1013.86 1012.28 1010.51 1008.59 1007.36 1006.64 1006.49 1005.19 1003.20 1004.38 1004.27 1004.63 1005.73 1006.77 1007.59 1007.97 1008.67 1009.17 1010.03
1025.94 1025.06 1024.42 1023.83 1023.00 1021.85 1021.19 1020.21 1019.23 1018.42 1017.30 1016.23 1015.21 1013.90 1012.37 1010.46 1008.67 1007.84 1007.28 1006.33 1005.25 1003.73 1004.27 1005.26 1001.75 1004.00 1005.19 1006.45 1007.22 1007.72 1008.25 1008.94
1025.91 1025.24 1024.85 1024.23 1023.29 1022.33 1021.71 1020.86 1019.72 1018.54 1017.47 1016.42 1015.43 1014.38 1012.92 1010.86 1009.21 1008.12 1007.62 1007.07 1006.67 1005.08 1003.17 1004.19 1003.45 1003.71 1003.60 1004.68 1005.87 1006.80 1007.41 1008.00
1026.02 1025.41 1024.89 1024.35 1023.71 1023.08 1022.23 1021.18 1020.23 1019.01 1017.72 1016.63 1015.57 1014.46 1013.04 1011.45 1010.02 1008.79 1007.57 1007.24 1006.57 1005.28 1003.84 1001.76 1000.73 1002.26 1001.24 1003.49 1004.09 1005.54 1006.12 1007.08
1026.13 1025.61 1025.01 1024.40 1023.88 1023.07 1022.31 1021.48 1020.63 1019.49 1018.28 1017.17 1016.31 1015.21 1013.75 1012.55 1011.04 1009.74 1008.70 1007.06 1006.17 1004.13 1003.16 1000.70 1001.06 1003.33 1001.40 1001.82 1003.39 1004.24 1005.24 1005.96
1026.38 1025.78 1025.11 1024.45 1023.82 1023.04 1022.38 1021.41 1020.69 1019.71 1018.77 1017.75 1016.80 1015.90 1014.90 1013.32 1011.61 1009.95 1008.91 1007.87 1006.72 1004.71 1005.52 1002.75 1002.14 1002.50 1002.73 1004.40 1003.35 1002.85 1003.85 1004.77
1026.35 1025.81 1025.18 1024.61 1023.94 1023.19 1022.55 1021.67 1020.91 1020.17 1019.38 1018.54 1017.83 1016.79 1015.50 1013.68 1012.27 1011.10 1010.03 1008.69 1007.99 1007.77 1005.42 1002.80 1002.15 1002.51 1004.56 1002.62 1003.30 1004.28 1002.59 1003.62
1026.26 1025.70 1025.20 1024.70 1024.11 1023.47 1022.69 1021.87 1021.06 1020.16 1019.45 1018.73 1018.02 1017.08 1015.54 1014.20 1013.43 1012.30 1011.08 1010.38 1008.81 1006.81 1004.96 1002.36 1002.36 1004.06 1003.57 1002.88 1002.20 1002.84 1002.37 1003.62
1026.19 1025.72 1025.31 1024.97 1024.37 1023.72 1022.90 1022.10 1021.14 1020.22 1019.45 1018.84 1018.17 1017.34 1016.60 1015.37 1014.10 1013.08 1011.97 1010.70 1009.41 1008.00 1007.25 1004.31 1004.41 1005.88 1006.23 1004.92 1004.73 1004.69 1004.15 1002.94
1026.03 1025.81 1025.49 1025.10 1024.59 1023.93 1023.14 1022.28 1021.42 1020.58 1019.60 1019.07 1018.55 1018.11 1017.51 1016.59 1015.60 1014.35 1013.62 1012.68 1011.79 1009.72 1007.30 1006.09 1006.36 1008.26 1008.48 1006.47 1005.51 1005.27 1005.04 1004.96
1025.93 1025.63 1025.55 1025.23 1024.76 1024.16 1023.45 1022.62 1021.92 1021.04 1020.23 1019.25 1018.76 1018.18 1017.48 1016.91 1016.18 1015.07 1015.04 1014.41 1012.45 1009.93 1008.68 1006.45 1008.25 1009.49 1009.23 1007.84 1006.16 1004.54 1006.51 1005.93
1025.94 1025.74 1025.63 1025.48 1025.01 1024.42 1023.86 1023.20 1022.46 1021.58 1020.63 1019.72 1018.83 1018.11 1017.53 1016.89 1016.68 1016.60 1016.31 1015.59 1013.43 1011.06 1008.45 1010.29 1010.37 1010.32 1010.10 1006.86 1006.51 1006.10 1007.19 1007.95
1025.91 1025.75 1025.73 1025.56 1025.11 1024.65 1024.19 1023.56 1022.88 1022.10 1021.34 1020.11 1019.09 1018.29 1017.68 1017.52 1017.13 1016.92 1016.44 1015.07 1012.79 1011.73 1012.38 1011.14 1009.94 1010.39 1009.04 1008.73 1006.86 1008.12 1008.37 1008.85
Wind_Speed
17 17 16 15 15 18 17 16 17 18 15 12 10 11 10 9 11 12 18 16 20 19 14 14 15 12 11 11 13 9 8 8
15 16 16 16 16 19 20 20 20 15 13 14 14 12 13 13 9 16 18 18 20 20 16 16 16 15 17 17 12 14 7 7
17 18 18 18 19 21 23 23 20 15 12 13 12 13 11 13 12 10 13 18 21 18 19 17 20 15 17 17 16 11 8 11
19 21 20 18 19 23 21 22 22 18 19 12 11 14 11 10 10 5 6 11 18 21 21 18 19 17 16 19 19 21 14 11
17 19 20 18 18 21 22 21 20 18 21 14 17 12 16 14 12 11 6 5 14 14 22 21 19 17 18 19 18 17 18 17
16 17 17 19 18 19 20 23 21 21 20 18 14 14 13 15 12 14 12 7 10 12 14 19 20 17 18 20 20 19 16 16
14 14 16 16 16 18 20 22 22 20 21 20 19 19 18 15 13 9 3 7 7 4 13 22 24 20 20 18 21 23 19 16
11 12 14 16 16 18 18 22 22 21 21 21 21 19 19 18 15 10 10 5 5 8 7 14 14 20 21 19 20 21 21 18
11 11 11 14 16 18 19 20 21 22 21 21 18 20 13 13 14 13 8 7 7 10 11 9 14 14 21 20 17 17 20 19
11 11 10 12 13 13 16 19 20 21 20 19 21 18 19 17 18 15 11 10 8 7 9 6 7 21 26 22 16 20 20 20
10 9 10 10 11 9 12 15 17 19 20 17 17 21 20 17 15 16 15 14 12 10 10 5 6 6 17 4 16 21 21 18
9 8 8 8 8 9 10 13 17 17 17 19 18 18 19 18 16 16 16 16 15 12 8 10 12 4 17 12 17 22 24 22
8 7 7 8 10 10 12 10 12 14 14 14 17 17 16 18 19 19 17 17 15 12 10 14 16 13 12 16 12 10 23 22
8 7 7 8 10 9 9 11 12 12 13 12 13 16 19 19 19 20 19 16 14 13 16 18 22 16 13 13 9 4 7 7
7 7 7 7 8 9 10 10 11 12 12 12 12 14 16 17 18 19 20 19 16 14 14 18 21 17 13 10 10 5 4 4
7 7 6 7 8 9 10 10 10 12 14 11 12 11 11 13 15 16 18 18 14 13 15 18 19 16 12 12 9 12 9 7
7 7 5 6 8 9 9 12 12 12 13 13 11 12 13 12 12 15 13 15 17 17 16 21 20 12 21 20 14 16 12 11
7 7 4 6 7 7 9 10 11 14 15 13 12 14 14 15 13 12 11 12 13 15 22 17 13 14 24 27 24 14 12 11
6 5 3 6 6 7 7 6 9 11 13 15 13 17 15 14 14 13 13 12 17 15 13 15 16 14 24 25 24 14 12 12
Wind_Direction
356 359 358 358 2 0 356 354 345 341 329 332 329 317 314 290 217 215 208 204 196 190 196 194 183 180 183 185 183 183 185 173
349 355 353 354 360 2 2 357 354 348 340 339 331 324 316 306 293 227 214 205 202 200 195 190 187 185 186 187 178 177 169 157
352 353 354 358 355 358 359 355 355 348 343 331 318 310 298 293 287 282 261 215 209 204 202 194 191 189 184 186 184 180 179 172
346 351 354 352 355 359 357 353 351 348 343 331 323 312 299 292 283 262 264 302 216 209 209 200 194 192 190 186 185 182 177 183
345 350 353 351 352 354 355 353 350 349 344 339 330 313 308 302 285 288 255 273 296 336 216 208 197 196 193 191 188 185 181 183
342 349 350 350 351 351 353 353 352 351 346 337 334 321 308 301 293 278 239 192 177 252 280 229 201 200 198 192 190 191 190 185
337 336 352 352 347 352 351 351 352 348 349 340 339 328 323 314 312 306 253 220 217 154 296 317 202 194 197 195 194 194 190 191
324 333 350 353 351 355 353 347 347 349 351 347 345 337 331 327 326 324 318 281 247 213 206 289 230 196 197 195 194 194 194 193
332 337 340 351 354 354 355 350 348 349 352 352 344 341 338 336 334 334 325 332 312 289 165 220 256 261 197 193 193 198 197 200
330 331 341 348 346 343 349 349 350 351 354 355 353 341 344 342 341 341 336 327 303 289 248 178 325 338 215 190 190 196 195 201
332 333 335 341 331 326 344 352 348 351 354 359 352 351 344 341 340 348 345 337 331 335 317 188 162 259 314 250 199 196 198 200
325 325 323 322 320 335 331 347 351 347 349 354 353 355 345 343 347 353 354 347 342 358 317 61 63 196 203 219 252 198 196 198
317 319 327 328 334 338 339 329 335 349 342 347 349 347 347 355 354 353 352 358 351 344 349 63 52 45 19 211 234 295 189 200
322 333 331 330 332 331 330 339 338 334 344 346 346 348 353 356 358 352 352 342 353 6 20 43 48 28 33 19 7 97 9 222
321 332 328 331 327 325 326 333 336 344 345 350 353 356 351 348 355 355 351 349 350 13 18 38 51 32 11 43 13 17 69 8
323 327 334 329 328 329 336 334 335 343 347 350 353 358 357 352 353 0 351 345 341 7 30 44 48 28 8 22 52 43 24 16
323 329 354 339 334 333 334 340 345 343 346 346 355 356 358 5 358 4 357 344 343 6 24 39 37 26 7 23 38 51 27 24
325 337 1 348 330 325 339 342 345 345 347 349 355 356 3 5 4 1 353 346 355 13 28 25 28 28 12 28 26 43 33 24
339 340 357 339 317 329 332 339 351 352 351 351 355 356 0 1 359 354 354 359 14 18 13 17 25 13 15 20 34 28 30 18